Location: Mauna Kea VIS
(19.7591°N, 155.4561°W)
Time: 19:16:48
(UTC-10:00)

BlueWalker 3 - Visible Passes

Search period start: 08 December 2025 00:00
Search period end: 18 December 2025 00:00
Orbit: 455 x 462 km, 53.2° (Epoch: 08 December)

Date Brightness Start Highest point End Pass type
(mag) Time Alt. Az. Time Alt. Az. Time Alt. Az.
08 Dec 4.0 19:06:35 10° NNW 19:07:21 15° N 19:07:21 15° N visible
09 Dec 3.0 18:32:05 10° N 18:34:56 22° NE 18:35:51 20° ENE visible
10 Dec 4.0 19:34:28 10° WNW 19:37:29 25° WSW 19:39:27 16° SSW visible
11 Dec 3.3 18:59:19 10° NW 19:02:40 37° SW 19:06:01 10° SSE visible
12 Dec 2.5 18:24:17 10° NW 18:27:49 56° SW 18:31:21 10° SSE visible
16 Dec 4.9 06:09:11 10° S 06:11:51 20° ESE 06:14:31 10° ENE visible
17 Dec 5.1 05:35:06 10° SSE 05:36:58 14° ESE 05:38:51 10° E visible
